Home > Weather > San Antonio > Past weeks

Flag for USA Weather for the Past 2 Weeks in San Antonio, Texas, USA

Now
76 °F

Passing clouds.


Feels Like: 78 °F
Forecast: 58 / 85 °F
Wind: No wind

Location: San Antonio International Airport

Current Time: May 5, 2016 at 10:52:23 PM

Latest Report: May 5, 2016 at 9:51 PM


Visibility: 10 mi

Pressure: 29.98 "Hg

Humidity: 43%

Dew Point: 52 °F

Location of San AntonioLocation

Historic Weather in San Antonio — Graph

°F

San Antonio Temperature Yesterday

Maximum temperature yesterday: 86 °F (at 3:51 PM)
Minimum temperature yesterday: 53 °F (at 6:51 AM)
Average temperature yesterday: 70 °F

High & Low Weather Summary for the Past Weeks

 TemperatureHumidityPressure
High88 °F (Apr 25, 4:51 PM)94% (Apr 27, 12:51 AM)30.12 "Hg (Apr 27, 12:51 AM)
Low53 °F (May 4, 6:51 AM)17% (Apr 27, 1:51 PM)29.51 "Hg (Apr 29, 7:51 PM)
Average72 °F67%29.85 "Hg
* Reported Apr 20 8:51 PM — May 5 8:51 PM, San Antonio, Weather by CustomWeather, © 2016

Note: Actual official high and low records may vary slightly from our data, if they occured in-between our weather recording intervals... More about our weather records

Advertising

San Antonio Weather History for the Previous 24 Hours

Scroll right to see more
 ConditionsComfort  
Time TempWeatherWind HumidityBarometerVisibility
8:51 PM
Thu, May 5
76 °FPartly sunny.7 mph45%29.96 "Hg10 mi
7:51 PM78 °FPartly sunny.9 mph42%29.93 "Hg10 mi
6:51 PM84 °FPartly sunny.6 mph35%29.93 "Hg10 mi
5:51 PM85 °FPartly sunny.5 mph32%29.93 "Hg10 mi
4:51 PM85 °FPartly sunny.7 mph31%29.95 "Hg10 mi
3:51 PM85 °FPartly sunny.5 mph31%29.97 "Hg10 mi
2:51 PM85 °FPartly sunny.8 mph32%29.99 "Hg10 mi
1:51 PM85 °FPartly sunny.3 mph31%30.01 "Hg10 mi
12:51 PM83 °FPartly sunny.6 mph31%30.03 "Hg10 mi
11:51 AM81 °FScattered clouds.3 mph34%30.05 "Hg10 mi
10:51 AM79 °FScattered clouds.3 mph36%30.06 "Hg10 mi
9:51 AM77 °FScattered clouds.3 mph39%30.05 "Hg10 mi
8:51 AM69 °FPassing clouds.No wind53%30.04 "Hg10 mi
7:51 AM60 °FPassing clouds.6 mph67%30.03 "Hg10 mi
6:51 AM56 °FPassing clouds.6 mph70%30.01 "Hg10 mi
5:51 AM56 °FClear.7 mph72%30.00 "Hg10 mi
4:51 AM56 °FClear.6 mph75%29.99 "Hg10 mi
3:51 AM58 °FClear.7 mph70%29.99 "Hg10 mi
2:51 AM60 °FClear.6 mph67%30.00 "Hg10 mi
1:51 AM60 °FClear.6 mph67%30.01 "Hg10 mi
12:51 AM64 °FClear.5 mph56%30.01 "Hg10 mi
11:51 PM
Wed, May 4
64 °FClear.8 mph58%30.00 "Hg10 mi
10:51 PM64 °FClear.7 mph61%29.99 "Hg10 mi
Weather by CustomWeather, © 2016

See weather overviewHow to use our weather pages